Hourly Weather Lugovaya

Today, 13 May, Thursday

Time Temperature Precipitation Wind Pressure Humidity
00:00 +16°C° 0 mm 2 mps 756 mmHg 57%
01:00 +15°C° 0 mm 2 mps 756 mmHg 60%
02:00 +15°C° 0 mm 2 mps 756 mmHg 63%
03:00 +14°C° 0 mm 2 mps 756 mmHg 65%
04:00 +14°C° 0 mm 2 mps 756 mmHg 67%
05:00 +16°C° 0 mm 2 mps 756 mmHg 61%
06:00 +18°C° 0 mm 2 mps 756 mmHg 55%
07:00 +20°C° 0 mm 2 mps 756 mmHg 49%
08:00 +22°C° 0 mm 3 mps 756 mmHg 44%
09:00 +24°C° 0 mm 3 mps 756 mmHg 39%
10:00 +26°C° 0 mm 3 mps 756 mmHg 34%
11:00 +27°C° 0 mm 3 mps 755 mmHg 32%
12:00 +28°C° 0 mm 3 mps 755 mmHg 30%
13:00 +29°C° 0 mm 3 mps 755 mmHg 29%
14:00 +29°C° 0 mm 3 mps 755 mmHg 28%
15:00 +29°C° 0 mm 3 mps 755 mmHg 28%
16:00 +29°C° 0 mm 3 mps 755 mmHg 27%
17:00 +28°C° 0 mm 2 mps 755 mmHg 32%
18:00 +26°C° 0 mm 1 mps 755 mmHg 36%
19:00 +25°C° 0 mm 1 mps 755 mmHg 41%
20:00 +24°C° 0 mm 1 mps 755 mmHg 43%
21:00 +22°C° 0 mm 1 mps 755 mmHg 45%
22:00 +21°C° 0 mm 1 mps 755 mmHg 48%
23:00 +20°C° 0 mm 1 mps 755 mmHg 50%

Tomorrow, 14 May, Friday

Time Temperature Precipitation Wind Pressure Humidity
00:00 +19°C° 0 mm 1 mps 755 mmHg 53%
01:00 +19°C° 0 mm 1 mps 755 mmHg 55%
02:00 +18°C° 0 mm 1 mps 755 mmHg 57%
03:00 +18°C° 0 mm 1 mps 755 mmHg 60%
04:00 +16°C° 0 mm 1 mps 755 mmHg 62%
05:00 +18°C° 0 mm 2 mps 755 mmHg 56%
06:00 +20°C° 0 mm 2 mps 755 mmHg 50%
07:00 +24°C° 0 mm 2 mps 755 mmHg 44%
08:00 +25°C° 0 mm 2 mps 755 mmHg 40%
09:00 +27°C° 0 mm 3 mps 755 mmHg 35%
10:00 +29°C° 0 mm 4 mps 755 mmHg 31%
11:00 +30°C° 0 mm 4 mps 755 mmHg 28%
12:00 +30°C° 0 mm 4 mps 754 mmHg 25%
13:00 +32°C° 0 mm 4 mps 754 mmHg 22%
14:00 +32°C° 0 mm 4 mps 754 mmHg 22%
15:00 +32°C° 0 mm 4 mps 754 mmHg 22%
16:00 +32°C° 0 mm 4 mps 753 mmHg 22%
17:00 +29°C° 0 mm 3 mps 753 mmHg 26%
18:00 +28°C° 0 mm 3 mps 753 mmHg 31%
19:00 +26°C° 0 mm 2 mps 753 mmHg 36%
20:00 +25°C° 0 mm 2 mps 753 mmHg 40%
21:00 +23°C° 0 mm 2 mps 753 mmHg 44%
22:00 +20°C° 0 mm 2 mps 753 mmHg 48%
23:00 +20°C° 0 mm 2 mps 753 mmHg 53%

Day after tomorrow, 15 May, Saturday

Time Temperature Precipitation Wind Pressure Humidity
00:00 +19°C° 0 mm 3 mps 752 mmHg 57%
01:00 +19°C° 0 mm 3 mps 752 mmHg 61%
02:00 +19°C° 0 mm 3 mps 752 mmHg 62%
03:00 +18°C° 0 mm 3 mps 752 mmHg 62%
04:00 +18°C° 0 mm 3 mps 753 mmHg 63%
05:00 +20°C° 0 mm 3 mps 753 mmHg 59%
06:00 +21°C° 0 mm 3 mps 753 mmHg 54%
07:00 +23°C° 0 mm 4 mps 753 mmHg 50%
08:00 +25°C° 0 mm 4 mps 752 mmHg 44%
09:00 +27°C° 0 mm 4 mps 752 mmHg 38%
10:00 +29°C° 0 mm 5 mps 752 mmHg 32%
11:00 +30°C° 0 mm 5 mps 752 mmHg 30%
12:00 +30°C° 0 mm 5 mps 752 mmHg 27%
13:00 +32°C° 0 mm 6 mps 751 mmHg 25%
14:00 +32°C° 0 mm 6 mps 751 mmHg 26%
15:00 +32°C° 0 mm 5 mps 751 mmHg 27%
16:00 +32°C° 0 mm 5 mps 751 mmHg 28%
17:00 +30°C° 0 mm 5 mps 751 mmHg 32%
18:00 +29°C° 0 mm 5 mps 751 mmHg 36%
19:00 +27°C° 0 mm 5 mps 750 mmHg 39%
20:00 +26°C° 0.1 mm 4 mps 751 mmHg 46%
21:00 +24°C° 0.1 mm 3 mps 751 mmHg 53%
22:00 +21°C° 0.1 mm 2 mps 751 mmHg 60%
23:00 +20°C° 0.2 mm 2 mps 751 mmHg 65%

16 May, Sunday

Time Temperature Precipitation Wind Pressure Humidity
00:00 +19°C° 0.2 mm 2 mps 751 mmHg 70%
01:00 +19°C° 0.2 mm 1 mps 751 mmHg 75%
02:00 +18°C° 0 mm 1 mps 752 mmHg 75%
03:00 +17°C° 0 mm 2 mps 752 mmHg 75%
04:00 +17°C° 0 mm 2 mps 752 mmHg 75%
05:00 +19°C° 0 mm 2 mps 752 mmHg 68%
06:00 +20°C° 0 mm 2 mps 752 mmHg 61%
07:00 +22°C° 0 mm 3 mps 752 mmHg 54%
08:00 +25°C° 0 mm 3 mps 752 mmHg 46%
09:00 +28°C° 0 mm 4 mps 752 mmHg 37%
10:00 +30°C° 0 mm 4 mps 751 mmHg 28%
11:00 +32°C° 0 mm 4 mps 751 mmHg 25%
12:00 +33°C° 0 mm 5 mps 751 mmHg 22%
13:00 +34°C° 0 mm 5 mps 751 mmHg 19%
14:00 +34°C° 0 mm 5 mps 750 mmHg 19%
15:00 +34°C° 0 mm 5 mps 750 mmHg 20%
16:00 +34°C° 0 mm 5 mps 750 mmHg 20%
17:00 +32°C° 0 mm 4 mps 750 mmHg 24%
18:00 +30°C° 0 mm 4 mps 750 mmHg 28%
19:00 +28°C° 0 mm 3 mps 749 mmHg 32%
20:00 +26°C° 0 mm 3 mps 749 mmHg 37%
21:00 +24°C° 0 mm 3 mps 749 mmHg 42%
22:00 +21°C° 0 mm 2 mps 749 mmHg 48%
23:00 +21°C° 0 mm 3 mps 749 mmHg 50%

17 May, Monday

Time Temperature Precipitation Wind Pressure Humidity
00:00 +20°C° 0 mm 3 mps 749 mmHg 52%
01:00 +20°C° 0 mm 3 mps 749 mmHg 54%
02:00 +19°C° 0 mm 3 mps 749 mmHg 55%
03:00 +19°C° 0 mm 3 mps 749 mmHg 57%
04:00 +19°C° 0 mm 3 mps 749 mmHg 58%
05:00 +21°C° 0 mm 3 mps 749 mmHg 53%
06:00 +22°C° 0 mm 4 mps 749 mmHg 48%
07:00 +25°C° 0 mm 4 mps 749 mmHg 44%
08:00 +27°C° 0 mm 5 mps 749 mmHg 38%
09:00 +29°C° 0 mm 5 mps 748 mmHg 32%
10:00 +30°C° 0 mm 6 mps 748 mmHg 26%
11:00 +32°C° 0 mm 6 mps 748 mmHg 25%
12:00 +32°C° 0 mm 6 mps 747 mmHg 24%
13:00 +32°C° 0 mm 6 mps 747 mmHg 23%
14:00 +32°C° 0 mm 6 mps 747 mmHg 25%
15:00 +30°C° 0 mm 6 mps 747 mmHg 27%
16:00 +30°C° 0 mm 5 mps 747 mmHg 28%
17:00 +29°C° 0 mm 5 mps 747 mmHg 31%
18:00 +28°C° 0 mm 5 mps 747 mmHg 34%
19:00 +27°C° 0 mm 4 mps 747 mmHg 37%
20:00 +25°C° 0 mm 4 mps 747 mmHg 43%
21:00 +22°C° 0 mm 3 mps 747 mmHg 49%
22:00 +20°C° 0 mm 2 mps 748 mmHg 55%
23:00 +19°C° 0 mm 2 mps 748 mmHg 57%

18 May, Tuesday

Time Temperature Precipitation Wind Pressure Humidity
00:00 +18°C° 0 mm 2 mps 748 mmHg 60%
01:00 +17°C° 0 mm 3 mps 749 mmHg 62%
02:00 +17°C° 0 mm 3 mps 749 mmHg 64%
03:00 +16°C° 0 mm 3 mps 749 mmHg 67%
04:00 +14°C° 0 mm 4 mps 750 mmHg 69%
05:00 +14°C° 0 mm 4 mps 750 mmHg 67%
06:00 +14°C° 0 mm 4 mps 751 mmHg 64%
07:00 +15°C° 0 mm 4 mps 751 mmHg 62%
08:00 +17°C° 0 mm 4 mps 752 mmHg 57%
09:00 +18°C° 0 mm 4 mps 752 mmHg 52%
10:00 +19°C° 0 mm 4 mps 752 mmHg 48%
11:00 +20°C° 0 mm 4 mps 752 mmHg 44%
12:00 +21°C° 0 mm 4 mps 752 mmHg 41%
13:00 +22°C° 0 mm 4 mps 752 mmHg 37%
14:00 +22°C° 0 mm 4 mps 753 mmHg 37%
15:00 +22°C° 0 mm 4 mps 753 mmHg 36%
16:00 +22°C° 0 mm 3 mps 753 mmHg 35%
17:00 +21°C° 0 mm 3 mps 753 mmHg 38%
18:00 +20°C° 0 mm 3 mps 753 mmHg 42%
19:00 +19°C° 0 mm 2 mps 754 mmHg 45%
20:00 +18°C° 0 mm 2 mps 754 mmHg 50%
21:00 +16°C° 0 mm 2 mps 754 mmHg 55%
22:00 +14°C° 0 mm 1 mps 755 mmHg 60%
23:00 +13°C° 0 mm 1 mps 755 mmHg 62%
Show more

We Need Your Consent

Meteoprog and our Service Providers may store and access personal data such as cookies, device identifiers or other similar technologies on your device and process such data to personalise content and ads, as well as provide social media features and to analyse the traffic.

  • Store and/or access information on your device

    Cookies, device identifiers or other information can be stored or accessed on your device for the purposes indicated above.

  • Personalised ads and content, ad and content measurement, audience insights, and products development

    Ads and content can be personalised based on a profile. More data can be added to better personalise ads and content. Ad and content performance can be measured. Insights about the audience who saw the ads and content can be derived. Such data can be used to develop or improve user’s experience, systems and software.

By clicking ‘I Agree’ you will allow the use of indicated cookies, device identifiers, web beacons or other similar technologies. Your settings can be changed in the browser on your device.

For certain purposes, legitimate interests may be relied on, rather than consent. You can read more about this in our Privacy and Cookie Policy.